Oelwein, IA

3:27 AM CDT on August 24, 2019 (GMT -0500)
Oelwein Municipal

Weather History for KOLZ - June, 2019

Change the Weather History Date:

Friday, June 7, 2019

  Actual Average Record
Temperature  
Mean Temperature 74 °F -  
Max Temperature 84 °F 78 °F 99 °F (2011)
Min Temperature 64 °F 56 °F 43 °F (1960)
Cooling Degree Days 9    
Growing Degree Days 24 (Base 50)    
Moisture  
Dew Point 62 °F    
Average Humidity 70    
Maximum Humidity 100    
Minimum Humidity 35    
Precipitation  
Precipitation 0.00 in - - ()
Sea Level Pressure  
Sea Level Pressure 29.95 in    
Wind  
Wind Speed 8 mph (ESE)    
Max Wind Speed 16 mph    
Max Gust Speed 23 mph    
Visibility 10 miles    
Events      
Averages and records for this station are not official NWS values.
T = Trace of Precipitation, MM = Missing Value Source: NWS Daily Summary

Daily Weather History Graph

Daily Weather History Graph

Search for Another Location

Airport or City:

Astronomy

Jun. 07, 2019 Rise Set
Actual Time 5:30 AM CDT 8:43 PM CDT
Civil Twilight 4:55 AM CDT 9:18 PM CDT
Nautical Twilight 4:11 AM CDT 10:02 PM CDT
Astronomical Twilight 3:17 AM CDT 10:57 PM CDT
Moon 9:49 AM CDT (6/7) No Moon Set
Length of Visible Light 16h 22m
Length of Day
15h 13m
Waxing Crescent, 22% of the Moon is Illuminated
Jun 7
Waxing Crescent
Jun 10
First Quarter
Jun 17
Full
Jun 25
Last Quarter
Jul 2
New

Hourly Weather History & Observations

Time (CDT) Temp. Heat Index Dew Point Humidity Pressure Visibility Wind Dir Wind Speed Gust Speed Precip Events Conditions
12:15 AM 68.0 °F - 66.2 °F 94% 29.92 in 10.0 mi ENE 4.6 mph - N/A   Clear
12:35 AM 68.0 °F - 66.2 °F 94% 29.92 in 10.0 mi ENE 4.6 mph - N/A   Clear
12:55 AM 68.0 °F - 66.2 °F 94% 29.92 in 10.0 mi East 4.6 mph - N/A   Clear
1:15 AM 66.2 °F - 66.2 °F 100% 29.92 in 10.0 mi East 4.6 mph - N/A   Clear
1:35 AM 66.2 °F - 66.2 °F 100% 29.92 in 10.0 mi East 4.6 mph - N/A   Clear
1:55 AM 66.2 °F - 66.2 °F 100% 29.92 in 10.0 mi East 4.6 mph - N/A   Clear
2:15 AM 66.2 °F - 66.2 °F 100% 29.91 in 10.0 mi East 4.6 mph - N/A   Clear
2:35 AM 66.2 °F - 66.2 °F 100% 29.91 in 10.0 mi East 4.6 mph - N/A   Clear
2:55 AM 66.2 °F - 66.2 °F 100% 29.92 in 10.0 mi ENE 3.5 mph - N/A   Clear
3:15 AM 64.4 °F - 64.4 °F 100% 29.92 in 10.0 mi ENE 4.6 mph - N/A   Clear
3:35 AM 64.4 °F - 64.4 °F 100% 29.92 in 10.0 mi East 4.6 mph - N/A   Clear
3:55 AM 64.4 °F - 64.4 °F 100% 29.92 in 10.0 mi East 5.8 mph - N/A   Clear
4:15 AM 66.2 °F - 64.4 °F 94% 29.92 in 10.0 mi East 5.8 mph - N/A   Clear
4:35 AM 66.2 °F - 66.2 °F 100% 29.93 in 10.0 mi East 5.8 mph - N/A   Clear
4:55 AM - - - N/A% 29.93 in 10.0 mi ESE 5.8 mph - N/A   Clear
5:15 AM 64.4 °F - 64.4 °F 100% 29.94 in 7.0 mi ESE 5.8 mph - N/A   Clear
5:35 AM 64.4 °F - 64.4 °F 100% 29.94 in 4.0 mi ESE 5.8 mph - N/A   Clear
5:55 AM 64.4 °F - 64.4 °F 100% 29.95 in 5.0 mi ESE 6.9 mph - N/A   Clear
6:15 AM 64.4 °F - 64.4 °F 100% 29.95 in 4.0 mi ESE 6.9 mph - N/A   Clear
6:35 AM 66.2 °F - 66.2 °F 100% 29.96 in 4.0 mi ESE 8.1 mph - N/A   Clear
6:55 AM 66.2 °F - 66.2 °F 100% 29.97 in 5.0 mi ESE 8.1 mph - N/A   Clear
7:15 AM 68.0 °F - 68.0 °F 100% 29.97 in 7.0 mi ESE 6.9 mph - N/A   Clear
7:35 AM 68.0 °F - 68.0 °F 100% 29.97 in 9.0 mi ESE 6.9 mph - N/A   Clear
7:55 AM 69.8 °F - 66.2 °F 88% 29.98 in 10.0 mi SSE 8.1 mph - N/A   Clear
8:15 AM 71.6 °F - 66.2 °F 83% 29.98 in 10.0 mi SE 8.1 mph - N/A   Clear
8:35 AM 71.6 °F - 66.2 °F 83% 29.98 in 10.0 mi SE 9.2 mph - N/A   Clear
8:55 AM 73.4 °F - 66.2 °F 78% 29.98 in 10.0 mi SE 10.4 mph - N/A   Clear
9:15 AM 75.2 °F - 66.2 °F 73% 29.98 in 10.0 mi ESE 9.2 mph - N/A   Clear
9:35 AM 75.2 °F - 66.2 °F 73% 29.98 in 10.0 mi ESE 8.1 mph - N/A   Clear
9:55 AM 77.0 °F - 66.2 °F 69% 29.98 in 10.0 mi SE 10.4 mph - N/A   Clear
10:15 AM 77.0 °F - 66.2 °F 69% 29.98 in 10.0 mi SE 10.4 mph - N/A   Clear
10:55 AM 78.8 °F - 66.2 °F 65% 29.98 in 10.0 mi ESE 12.7 mph - N/A   Clear
11:15 AM 78.8 °F - 64.4 °F 61% 29.97 in 10.0 mi East 10.4 mph - N/A   Clear
11:35 AM 80.6 °F 82.3 °F 64.4 °F 58% 29.97 in 10.0 mi ESE 9.2 mph 18.4 mph N/A   Clear
11:55 AM 80.6 °F 81.8 °F 62.6 °F 54% 29.97 in 10.0 mi SE 10.4 mph 17.3 mph N/A   Clear
12:15 PM 80.6 °F 81.8 °F 62.6 °F 54% 29.97 in 10.0 mi SE 9.2 mph 18.4 mph N/A   Clear
12:35 PM 82.4 °F 82.9 °F 60.8 °F 48% 29.96 in 10.0 mi ESE 13.8 mph - N/A   Clear
12:55 PM 82.4 °F 82.9 °F 60.8 °F 48% 29.96 in 10.0 mi SE 11.5 mph - N/A   Clear
1:15 PM 82.4 °F 82.9 °F 60.8 °F 48% 29.96 in 10.0 mi SE 11.5 mph 18.4 mph N/A   Clear
1:35 PM 82.4 °F 82.9 °F 60.8 °F 48% 29.95 in 10.0 mi ESE 15.0 mph - N/A   Clear
1:55 PM 82.4 °F 82.5 °F 59.0 °F 45% 29.95 in 10.0 mi SE 11.5 mph - N/A   Clear
2:15 PM 84.2 °F 83.0 °F 55.4 °F 37% 29.95 in 10.0 mi East 15.0 mph - N/A   Clear
2:35 PM 84.2 °F 83.5 °F 57.2 °F 40% 29.95 in 10.0 mi ESE 13.8 mph 20.7 mph N/A   Clear
2:55 PM 84.2 °F 83.0 °F 55.4 °F 37% 29.94 in 10.0 mi SE 13.8 mph - N/A   Clear
3:15 PM 84.2 °F 82.8 °F 53.6 °F 35% 29.94 in 10.0 mi SE 13.8 mph - N/A   Clear
3:35 PM 84.2 °F 83.0 °F 55.4 °F 37% 29.94 in 10.0 mi ESE 16.1 mph 21.9 mph N/A   Clear
3:55 PM 84.2 °F 83.0 °F 55.4 °F 37% 29.94 in 10.0 mi SE 13.8 mph - N/A   Clear
4:15 PM 84.2 °F 83.5 °F 57.2 °F 40% 29.94 in 10.0 mi ESE 15.0 mph - N/A   Clear
4:35 PM 84.2 °F 83.5 °F 57.2 °F 40% 29.94 in 10.0 mi ESE 11.5 mph 17.3 mph N/A   Clear
4:55 PM 84.2 °F 83.8 °F 59.0 °F 42% 29.94 in 10.0 mi SE 13.8 mph 19.6 mph N/A   Clear
5:15 PM 84.2 °F 83.8 °F 59.0 °F 42% 29.94 in 10.0 mi SE 12.7 mph - N/A   Clear
5:35 PM 84.2 °F 83.5 °F 57.2 °F 40% 29.94 in 10.0 mi ESE 16.1 mph 23.0 mph N/A   Clear
5:55 PM 82.4 °F 82.5 °F 59.0 °F 45% 29.94 in 10.0 mi SE 13.8 mph - N/A   Clear
6:15 PM 82.4 °F 82.5 °F 59.0 °F 45% 29.93 in 10.0 mi SE 13.8 mph - N/A   Clear
6:35 PM 82.4 °F 82.0 °F 57.2 °F 42% 29.94 in 10.0 mi SE 12.7 mph 18.4 mph N/A   Clear
6:55 PM 82.4 °F 82.5 °F 59.0 °F 45% 29.94 in 10.0 mi SE 11.5 mph - N/A   Clear
7:15 PM 80.6 °F 81.1 °F 59.0 °F 48% 29.94 in 10.0 mi SE 12.7 mph - N/A   Clear
7:35 PM 80.6 °F 81.1 °F 59.0 °F 48% 29.94 in 10.0 mi SE 9.2 mph - N/A   Clear
7:55 PM 78.8 °F - 60.8 °F 54% 29.95 in 10.0 mi SE 8.1 mph 13.8 mph N/A   Clear
8:15 PM 77.0 °F - 60.8 °F 57% 29.95 in 10.0 mi SE 8.1 mph - N/A   Clear
8:35 PM 75.2 °F - 60.8 °F 61% 29.95 in 10.0 mi SE 6.9 mph - N/A   Clear
8:55 PM 73.4 °F - 60.8 °F 65% 29.95 in 10.0 mi East 5.8 mph - N/A   Clear
9:15 PM 73.4 °F - 60.8 °F 65% 29.96 in 10.0 mi ESE 6.9 mph - N/A   Clear
9:35 PM 71.6 °F - 60.8 °F 69% 29.96 in 10.0 mi ESE 6.9 mph - N/A   Clear
9:55 PM 69.8 °F - 62.6 °F 78% 29.97 in 10.0 mi ESE 5.8 mph - N/A   Clear
10:15 PM 69.8 °F - 62.6 °F 78% 29.97 in 10.0 mi ESE 5.8 mph - N/A   Clear
10:35 PM 69.8 °F - 60.8 °F 73% 29.97 in 10.0 mi ESE 4.6 mph - N/A   Clear
10:55 PM 69.8 °F - 62.6 °F 78% 29.98 in 10.0 mi ESE 6.9 mph - N/A   Clear
11:15 PM 69.8 °F - 60.8 °F 73% 29.98 in 10.0 mi ESE 8.1 mph - N/A   Clear
11:35 PM 68.0 °F - 60.8 °F 78% 29.97 in 10.0 mi ESE 8.1 mph - N/A   Clear
11:55 PM 68.0 °F - 60.8 °F 78% 29.98 in 10.0 mi ESE 8.1 mph - N/A   Clear